This is the latest recevied weather packets stored in our database for station/object N4BBA. If no packets are shown the sender has not sent any weather packets the latest 10 day(s).
| Time | Temp. | Humidity | Pressure | Rain* | Wind** | Luminosity | Snow |
|---|---|---|---|---|---|---|---|
| 1777726147 | 11.67° C | 96% | 1011.8 hPa | 1.78 mm | - | 83 W/m² | - |
| 1777725844 | 11.11° C | 96% | 1011.6 hPa | 0 mm | - | 93 W/m² | - |
| 1777725542 | 11.11° C | 96% | 1011.5 hPa | 1.27 mm | - | 92 W/m² | - |
| 1777725239 | 11.11° C | 96% | 1011.3 hPa | 0 mm | - | 69 W/m² | - |
| 1777724936 | 11.11° C | 96% | 1011.4 hPa | 1.78 mm | - | 54 W/m² | - |
| 1777724632 | 11.11° C | 96% | 1011.3 hPa | 1.78 mm | - | 58 W/m² | - |
| 1777724330 | 11.11° C | 96% | 1011.4 hPa | 1.27 mm | - | 53 W/m² | - |
| 1777724027 | 11.11° C | 96% | 1011.3 hPa | 1.27 mm | - | 49 W/m² | - |
| 1777723725 | 11.11° C | 95% | 1011.1 hPa | 0 mm | - | 37 W/m² | - |
| 1777723420 | 11.11° C | 96% | 1011.1 hPa | 1.78 mm | - | 34 W/m² | - |
| 1777723118 | 11.11° C | 95% | 1011.2 hPa | 1.78 mm | - | 26 W/m² | - |
| 1777722815 | 11.11° C | 95% | 1011.1 hPa | 1.27 mm | - | 21 W/m² | - |
| 1777722512 | 11.11° C | 95% | 1011.3 hPa | 1.27 mm | - | 22 W/m² | - |
| 1777722209 | 11.11° C | 95% | 1011.3 hPa | 0 mm | - | 19 W/m² | - |
| 1777721906 | 11.11° C | 95% | 1011.3 hPa | 1.78 mm | - | 18 W/m² | - |
| 1777721603 | 11.11° C | 95% | 1011.3 hPa | 0 mm | - | 18 W/m² | - |
| 1777721302 | 11.11° C | 95% | 1011.2 hPa | 1.78 mm | - | 13 W/m² | - |
| 1777720998 | 11.11° C | 95% | 1011.3 hPa | 1.78 mm | - | 11 W/m² | - |
| 1777720696 | 11.11° C | 95% | 1011.5 hPa | 0 mm | - | 9 W/m² | - |
| 1777720393 | 11.67° C | 95% | 1011.5 hPa | 1.27 mm | - | 7 W/m² | - |
| 1777720091 | 11.67° C | 95% | 1011.3 hPa | 1.27 mm | - | 7 W/m² | - |
| 1777719789 | 11.67° C | 95% | 1011.4 hPa | 1.78 mm | - | 6 W/m² | - |
| 1777719486 | 11.67° C | 95% | 1011.6 hPa | 1.78 mm | - | 5 W/m² | - |
| 1777719182 | 11.67° C | 95% | 1011.5 hPa | 0 mm | - | 4 W/m² | - |
| 1777718880 | 11.67° C | 95% | 1011.4 hPa | 1.27 mm | - | 4 W/m² | - |
* Rain latest hour (hover to see other rain measurements)
** Current wind speed in m/s (hover to see current wind gust speed)